When you browse on this site, cookies collect data to enhance your experience and personalize the content and advertising you see.
Visit our Privacy Policy to learn more. By continuing to use the site, you agree to this use of cookies and data.
  • In Czech Republic
  • List of Countries
  • For 7 days
  • Water Temperature
  • Weather Map
  • Weather Widgets
  • user-avatar
    Login

    Hourly Weather Kryndy

    Today, 12 December, Thursday

    Time Temperature Precipitation Wind Pressure Humidity
    00:00 -5°C° 0 mm 6 mps 753 mmHg 86%
    01:00 -6°C° 0 mm 5 mps 754 mmHg 83%
    02:00 -7°C° 0 mm 5 mps 755 mmHg 84%
    03:00 -7°C° 0 mm 5 mps 756 mmHg 85%
    04:00 -10°C° 0 mm 5 mps 757 mmHg 88%
    05:00 -10°C° 0 mm 5 mps 757 mmHg 88%
    06:00 -11°C° 0 mm 5 mps 758 mmHg 88%
    07:00 -11°C° 0 mm 5 mps 758 mmHg 88%
    08:00 -11°C° 0 mm 5 mps 759 mmHg 88%
    09:00 -10°C° 0 mm 4 mps 759 mmHg 88%
    10:00 -10°C° 0 mm 4 mps 760 mmHg 87%
    11:00 -9°C° 0 mm 3 mps 760 mmHg 87%
    12:00 -8°C° 0 mm 3 mps 760 mmHg 86%
    13:00 -7°C° 0 mm 2 mps 760 mmHg 85%
    14:00 -7°C° 0 mm 2 mps 761 mmHg 87%
    15:00 -8°C° 0 mm 2 mps 761 mmHg 89%
    16:00 -8°C° 0 mm 2 mps 761 mmHg 91%
    17:00 -8°C° 0 mm 2 mps 761 mmHg 91%
    18:00 -9°C° 0 mm 2 mps 761 mmHg 91%
    19:00 -9°C° 0 mm 2 mps 762 mmHg 91%
    20:00 -9°C° 0 mm 2 mps 762 mmHg 91%
    21:00 -9°C° 0 mm 2 mps 762 mmHg 91%
    22:00 -9°C° 0 mm 2 mps 762 mmHg 91%
    23:00 -9°C° 0 mm 2 mps 762 mmHg 91%

    Tomorrow, 13 December, Friday

    Time Temperature Precipitation Wind Pressure Humidity
    00:00 -9°C° 0 mm 2 mps 762 mmHg 91%
    01:00 -9°C° 0 mm 2 mps 761 mmHg 91%
    02:00 -9°C° 0 mm 2 mps 761 mmHg 91%
    03:00 -9°C° 0 mm 2 mps 762 mmHg 90%
    04:00 -9°C° 0 mm 2 mps 762 mmHg 90%
    05:00 -9°C° 0 mm 2 mps 762 mmHg 90%
    06:00 -9°C° 0 mm 2 mps 762 mmHg 90%
    07:00 -9°C° 0 mm 2 mps 761 mmHg 90%
    08:00 -9°C° 0 mm 2 mps 761 mmHg 90%
    09:00 -10°C° 0 mm 3 mps 762 mmHg 90%
    10:00 -10°C° 0 mm 3 mps 762 mmHg 90%
    11:00 -9°C° 0 mm 3 mps 762 mmHg 89%
    12:00 -8°C° 0 mm 3 mps 762 mmHg 88%
    13:00 -8°C° 0 mm 3 mps 761 mmHg 87%
    14:00 -8°C° 0 mm 3 mps 762 mmHg 88%
    15:00 -8°C° 0 mm 3 mps 762 mmHg 90%
    16:00 -9°C° 0 mm 3 mps 762 mmHg 92%
    17:00 -9°C° 0 mm 3 mps 762 mmHg 92%
    18:00 -10°C° 0 mm 3 mps 762 mmHg 92%
    19:00 -10°C° 0 mm 3 mps 762 mmHg 92%
    20:00 -10°C° 0 mm 3 mps 762 mmHg 91%
    21:00 -10°C° 0 mm 3 mps 762 mmHg 91%
    22:00 -10°C° 0 mm 3 mps 763 mmHg 90%
    23:00 -10°C° 0 mm 3 mps 763 mmHg 90%

    Day after tomorrow, 14 December, Saturday

    Time Temperature Precipitation Wind Pressure Humidity
    00:00 -10°C° 0 mm 3 mps 762 mmHg 90%
    01:00 -10°C° 0 mm 3 mps 762 mmHg 90%
    02:00 -10°C° 0 mm 3 mps 763 mmHg 90%
    03:00 -10°C° 0 mm 3 mps 763 mmHg 89%
    04:00 -10°C° 0 mm 3 mps 763 mmHg 89%
    05:00 -12°C° 0 mm 3 mps 763 mmHg 89%
    06:00 -10°C° 0 mm 2 mps 763 mmHg 89%
    07:00 -10°C° 0 mm 2 mps 763 mmHg 89%
    08:00 -10°C° 0 mm 2 mps 764 mmHg 88%
    09:00 -10°C° 0 mm 2 mps 764 mmHg 88%
    10:00 -10°C° 0 mm 2 mps 765 mmHg 87%
    11:00 -9°C° 0 mm 2 mps 765 mmHg 85%
    12:00 -8°C° 0 mm 2 mps 765 mmHg 83%
    13:00 -9°C° 0 mm 3 mps 765 mmHg 82%
    14:00 -9°C° 0 mm 3 mps 765 mmHg 82%
    15:00 -9°C° 0 mm 2 mps 765 mmHg 83%
    16:00 -9°C° 0 mm 2 mps 765 mmHg 84%
    17:00 -9°C° 0 mm 2 mps 765 mmHg 84%
    18:00 -9°C° 0 mm 2 mps 765 mmHg 83%
    19:00 -10°C° 0 mm 2 mps 765 mmHg 82%
    20:00 -10°C° 0 mm 2 mps 766 mmHg 82%
    21:00 -10°C° 0 mm 2 mps 766 mmHg 81%
    22:00 -10°C° 0 mm 2 mps 766 mmHg 81%
    23:00 -10°C° 0 mm 2 mps 766 mmHg 80%

    15 December, Sunday

    Time Temperature Precipitation Wind Pressure Humidity
    00:00 -10°C° 0 mm 2 mps 766 mmHg 80%
    01:00 -10°C° 0 mm 2 mps 766 mmHg 80%
    02:00 -10°C° 0 mm 2 mps 766 mmHg 80%
    03:00 -10°C° 0 mm 2 mps 766 mmHg 80%
    04:00 -10°C° 0 mm 2 mps 766 mmHg 80%
    05:00 -10°C° 0 mm 2 mps 766 mmHg 80%
    06:00 -10°C° 0 mm 2 mps 766 mmHg 80%
    07:00 -10°C° 0 mm 2 mps 765 mmHg 80%
    08:00 -10°C° 0 mm 2 mps 766 mmHg 79%
    09:00 -10°C° 0 mm 2 mps 766 mmHg 79%
    10:00 -9°C° 0 mm 2 mps 766 mmHg 79%
    11:00 -9°C° 0 mm 2 mps 765 mmHg 78%
    12:00 -8°C° 0 mm 2 mps 765 mmHg 77%
    13:00 -9°C° 0 mm 3 mps 765 mmHg 76%
    14:00 -9°C° 0 mm 3 mps 765 mmHg 78%
    15:00 -9°C° 0 mm 3 mps 765 mmHg 80%
    16:00 -9°C° 0 mm 3 mps 765 mmHg 82%
    17:00 -10°C° 0 mm 3 mps 765 mmHg 82%
    18:00 -10°C° 0 mm 3 mps 765 mmHg 82%
    19:00 -10°C° 0 mm 3 mps 765 mmHg 82%
    20:00 -10°C° 0 mm 3 mps 765 mmHg 82%
    21:00 -10°C° 0 mm 3 mps 764 mmHg 81%
    22:00 -10°C° 0 mm 3 mps 764 mmHg 81%
    23:00 -10°C° 0 mm 3 mps 764 mmHg 80%

    16 December, Monday

    Time Temperature Precipitation Wind Pressure Humidity
    00:00 -10°C° 0 mm 3 mps 764 mmHg 80%
    01:00 -10°C° 0 mm 3 mps 764 mmHg 79%
    02:00 -10°C° 0 mm 3 mps 764 mmHg 80%
    03:00 -10°C° 0 mm 3 mps 764 mmHg 81%
    04:00 -10°C° 0 mm 3 mps 763 mmHg 82%
    05:00 -10°C° 0 mm 3 mps 763 mmHg 84%
    06:00 -10°C° 0 mm 4 mps 763 mmHg 86%
    07:00 -10°C° 0 mm 4 mps 763 mmHg 87%
    08:00 -10°C° 0.1 mm 4 mps 762 mmHg 89%
    09:00 -9°C° 0.1 mm 4 mps 762 mmHg 91%
    10:00 -9°C° 0.1 mm 4 mps 762 mmHg 92%
    11:00 -10°C° 0 mm 5 mps 762 mmHg 92%
    12:00 -8°C° 0 mm 5 mps 762 mmHg 92%
    13:00 -8°C° 0 mm 5 mps 761 mmHg 91%
    14:00 -7°C° 0.1 mm 5 mps 761 mmHg 92%
    15:00 -7°C° 0.1 mm 5 mps 760 mmHg 93%
    16:00 -7°C° 0.1 mm 5 mps 760 mmHg 94%
    17:00 -7°C° 0.1 mm 5 mps 760 mmHg 94%
    18:00 -7°C° 0.1 mm 5 mps 759 mmHg 94%
    19:00 -8°C° 0.1 mm 6 mps 759 mmHg 94%
    20:00 -8°C° 0.3 mm 6 mps 758 mmHg 94%
    21:00 -6°C° 0.3 mm 5 mps 758 mmHg 95%
    22:00 -6°C° 0.3 mm 5 mps 757 mmHg 95%
    23:00 -6°C° 0.2 mm 5 mps 757 mmHg 95%

    17 December, Tuesday

    Time Temperature Precipitation Wind Pressure Humidity
    00:00 -6°C° 0.2 mm 5 mps 757 mmHg 95%
    01:00 -5°C° 0.2 mm 5 mps 757 mmHg 95%
    02:00 -5°C° 0.1 mm 5 mps 756 mmHg 95%
    03:00 -5°C° 0.1 mm 5 mps 756 mmHg 95%
    04:00 -4°C° 0.1 mm 5 mps 756 mmHg 95%
    05:00 -4°C° 0 mm 5 mps 756 mmHg 95%
    06:00 -2°C° 0 mm 5 mps 756 mmHg 96%
    07:00 -2°C° 0 mm 5 mps 756 mmHg 96%
    08:00 -2°C° 0 mm 5 mps 756 mmHg 95%
    09:00 -2°C° 0 mm 5 mps 756 mmHg 94%
    10:00 -4°C° 0 mm 5 mps 756 mmHg 92%
    11:00 -4°C° 0 mm 5 mps 756 mmHg 92%
    12:00 -2°C° 0 mm 5 mps 755 mmHg 92%
    13:00 -2°C° 0 mm 5 mps 755 mmHg 91%
    14:00 -2°C° 0 mm 5 mps 755 mmHg 91%
    15:00 -4°C° 0 mm 5 mps 755 mmHg 91%
    16:00 -4°C° 0 mm 5 mps 755 mmHg 91%
    17:00 -4°C° 0 mm 5 mps 755 mmHg 91%
    18:00 -4°C° 0 mm 5 mps 755 mmHg 90%
    19:00 -4°C° 0 mm 5 mps 755 mmHg 89%
    20:00 -4°C° 0 mm 5 mps 755 mmHg 90%
    21:00 -4°C° 0 mm 4 mps 755 mmHg 91%
    22:00 -4°C° 0 mm 3 mps 755 mmHg 92%
    23:00 -5°C° 0 mm 3 mps 755 mmHg 93%
    Show more